Regional Weather Roundup
Issued by NWS

Home | Current Version | Previous Version | Text Only | Print | Product List | Glossary Off
Versions: 1 2 3 4 5 6 7 8 9 10 11 12 13 14 15 16 17 18 19 20 21 22 23 24 25 26 27 28 29 30 31 32 33 34 35 36 37 38 39 40 41 42 43 44 45 46 47 48 49 50

000
ASUS43 KLOT 281109
RWRIL

ILLINOIS REGIONAL WEATHER ROUNDUP
NATIONAL WEATHER SERVICE CHICAGO/ROMEOVILLE IL
600 AM CDT SUN AUG 28 2016

NOTE: "FAIR" INDICATES FEW OR NO CLOUDS BELOW 12,000 FEET WITH NO
SIGNIFICANT WEATHER AND/OR OBSTRUCTIONS TO VISIBILITY.

* THESE STATIONS ARE NOT UNDER NWS QUALITY CONTROL. THEY ALSO MAY NOT
  REPORT WEATHER SUCH AS PRECIPITATION OR FOG.

ILZ001-002-007-009-015-016-024-281200-
NORTHWEST ILLINOIS

CITY           SKY/WX    TMP DP  RH WIND       PRES   REMARKS
MOLINE         PTCLDY    69  67  93 NE3       30.11S
STERLING*      CLEAR     67  67 100 E3        30.14R FOG
SAVANNA*       CLEAR     66  65  98 CALM      30.13S FOG
$$

ILZ003-004-008-010-011-017-018-281200-
NORTH CENTRAL ILLINOIS

CITY           SKY/WX    TMP DP  RH WIND       PRES   REMARKS
ROCKFORD       CLOUDY    68  66  93 CALM      30.16R FOG
FREEPORT*      FOG       63  63  99 CALM      30.16F VSB<1/4
ROCHELLE*      FOG       67  67 100 CALM      30.15R VSB 1/4
DE KALB*       CLEAR     67  66  99 E3        30.16S FOG
$$

ILZ005-006-012>014-019>023-281200-
NORTHEAST ILLINOIS

CITY           SKY/WX    TMP DP  RH WIND       PRES   REMARKS
CHICAGO-OHARE  PTCLDY    72  68  87 NE5       30.14S
CHICAGO-MIDWAY MOCLDY    76  69  79 CALM      30.15R
AURORA         PTCLDY    68  66  93 CALM      30.15R
LANSING*       PTCLDY    71  71 100 CALM      30.15S
JOLIET*          N/A     70  70  99 CALM      30.15R FOG
WAUKEGAN       FOG       68  67  96 CALM      30.14S VSB 1/4
DUPAGE AIRPORT CLEAR     68  65  90 CALM      30.14R
KANKAKEE*      PTCLDY    71  70  95 CALM      30.16R
WHEELING       PTCLDY    70  69  97 NE3       30.16R
MORRIS*        CLEAR     69  69  97 CALM      30.13R FOG
ROMEOVILLE*    MOCLDY    70  70 100 NE3       30.15R FOG
$$

LMZ740>746-281200-
SOUTHERN LAKE MICHIGAN

STATION/POSITION SKY/WX   TEMP    WIND        PRES    VSBY  WAVE
                          AIR SEA DIR/SP/G                  HT/PER
                          (F)     (DEG/KT/KT) (MB)    (MI)  (FT/S)
SOUTHERN BUOY              72 74   10/  6/  8 1020.2R         1
WILMETTE HARBOR            71 70   10/  4/  4   N/A           0
HARRISON CRIB              74     350/  5/  5   N/A
BURNHAM HARBOR             72     350/  3/  7   N/A
CALUMET HARBOR             74     200/  3/  3 1020.3R
BURNS HARBOR               73      CALM  /  8 1021.3R
MICHIGAN CITY              74     170/  5/  6   N/A
MICHIGAN CITY 6N           75 76  260/  4/  6   N/A           0
ST. JOSEPH                 75 75   40/  2/  4 1020.7R         1
$$

ILZ025>027-034>036-040-047-049-050-058-095>099-281200-
WEST-CENTRAL ILLINOIS

CITY           SKY/WX    TMP DP  RH WIND       PRES   REMARKS
QUINCY         PTCLDY    71  70  96 SE3       30.11R
GALESBURG*       N/A     68  68  99 CALM      30.12S FOG
MACOMB*        PTCLDY    68  68 100 E5        30.13S FOG
JACKSONVILLE*  CLOUDY    72  71  96 NE6       30.13R
PITTSFIELD*    CLEAR     70  69  99 CALM      30.13R FOG
$$

ILZ028>032-037-038-041>044-048-051>054-059>061-281200-
CENTRAL ILLINOIS

CITY           SKY/WX    TMP DP  RH WIND       PRES   REMARKS
PONTIAC        PTCLDY    70  70 100 CALM      30.16R
BLOOMINGTON    CLOUDY    73  71  93 S3        30.16R
DECATUR        PTCLDY    68  67  96 CALM      30.14R
PEORIA         CLEAR     71  71 100 CALM      30.13R FOG
LACON*         CLEAR     69  68  97 CALM      30.13R
LINCOLN*       LGT RAIN  73  73 100 CALM      30.14S
SPRINGFIELD    TSTM      72  68  87 N8        30.16R FOG
TAYLORVILLE    PTCLDY    70  70 100 CALM      30.14R
$$

ILZ033-039-045-046-055>057-062-063-281200-
EAST-CENTRAL ILLINOIS

CITY           SKY/WX    TMP DP  RH WIND       PRES   REMARKS
CHAMPAIGN      PTCLDY    69  67  93 E3        30.15R
RANTOUL*       CLEAR     71  69  96 CALM      30.16R
MATTOON        CLEAR     71  69  93 CALM      30.15R FOG
PARIS*           N/A     67  67 100 CALM      30.17R FOG
$$

ILZ079-100>102-281200-
SOUTHWEST ILLINOIS

CITY           SKY/WX    TMP DP  RH WIND       PRES   REMARKS
ALTON          FOG       68  68  98 CALM      30.12S VSB 1/2
BELLEVILLE     CLEAR     70  70 100 N1        30.11R FOG
CAHOKIA*       PTCLDY    71  69  93 CALM      30.11R
SPARTA*        CLEAR     71  70  98 CALM      30.13R
$$

ILZ064>066-069>071-074>076-080>082-084>086-088>090-092>094-281200-
SOUTH-CENTRAL ILLINOIS

CITY           SKY/WX    TMP DP  RH WIND       PRES   REMARKS
CARBONDALE     FOG       72  71  97 CALM      30.12R VSB 1/4
CAIRO*         CLEAR     69  69 100 CALM      30.10S FOG
EFFINGHAM*     CLEAR     69  69 100 CALM      30.16R FOG
MARION         FOG       72  72 100 CALM      30.13R VSB 3/4
MT. VERNON     CLEAR     70  66  88 CALM      30.14R
CENTRALIA*     CLEAR     69  69 100 CALM      30.12R FOG
SALEM*         FOG       70  69  95 CALM      30.13S VSB 1/2
METROPOLIS*    CLEAR     72  71  99 CALM      30.12R FOG
$$

ILZ067-068-072-073-078-083-087-091-281200-
SOUTHEAST ILLINOIS

CITY           SKY/WX    TMP DP  RH WIND       PRES   REMARKS
LAWRENCEVILLE  PTCLDY    72  71  97 CALM      30.14R FOG
FLORA*         CLEAR     72  71  98 CALM      30.13S FOG
FAIRFIELD*     CLEAR     71  71 100 NE3       30.13R FOG
HARRISBURG*    FOG       72  72 100 CALM      30.12S VSB 1/4
ROBINSON*      FOG       67  67 100 CALM      30.15R VSB 1/2
CARMI*         CLEAR     72  72 100 CALM      30.12R FOG
$$

ABBREVIATIONS USED IN REMARKS
   TC - TEMPERATURE IN CELSIUS
  WCI - WIND CHILL INDEX
   HX - HEAT INDEX
  VSB - VISIBILITY
$$





USA.gov is the U.S. government's official web portal to all federal, state and local government web resources and services.